Find Kosmos-1975

NORAD ID: 19573 Int'l Des: 1988-093 Owner: GRU Country: SU operational
LEOCIRCULARPOLAR

Live Position

Loading 3D Globe...

About Kosmos-1975

Description loading...

Upcoming Passes

Passes for default location (London). Set your location on the main map for personalized predictions.

Altitude History

Loading altitude history...

Two-Line Element Set

1 19573U 88093A 26106.63361197 .00003255 00000-0 11570-3 0 9996
2 19573 82.5174 79.5696 0012732 45.1407 315.0865 15.28558672 25208
Epoch: Apr 16, 2026 • Age: 21 hours

Current Status

Altitude 488.7 km
Velocity 7.63 km/s
Sub-Earth Point 70.86°N, 150.54°W
Launch Date Oct 11, 1988
Age 37.5 years
Type other

Technical Details

Classification Payload
Mass 1750.00 kg
Dry Mass 1750.00 kg
Total Mass 1750.00 kg
Length 3.20 m
Diameter 1.30 m
Span 13.10 m
Shape Cyl + Ant
Manufacturer YUZH
Bus Type Tselina-D
Phase Status In Orbit
Owner/State GRU/SU

Most Searched